Snowfall_Accumulation
0.9 3.0 6.0 2.8 1.7 2.2 2.2 2.6 2.5 1.0 0.3 0.6 0.9 0.9 0.8 0.4 0.4 0.4 0.3 0.3 0.3 0.3 0.4 0.2 0.1 0.1 0.1 0.0 0.2 0.0 0.0 0.0 0.0 0.0 0.0 0.1 0.1 0.1 0.0 0.0 0.0 0.0 0.0 0.0
3.7 5.5 2.1 1.1 1.0 2.0 3.0 4.0 3.0 1.2 0.4 1.1 0.9 0.9 0.6 0.5 0.6 0.5 0.5 0.4 0.5 0.4 0.4 0.4 0.3 0.2 0.1 0.3 0.3 0.0 0.0 0.0 0.1 0.0 0.0 0.1 0.2 0.2 0.2 0.0 0.0 0.0 0.0 0.0
5.5 2.6 0.7 1.3 1.9 3.5 3.7 4.2 2.7 2.6 1.2 1.0 1.5 1.9 1.1 1.0 0.5 0.5 0.5 0.5 0.5 0.5 0.5 0.5 0.4 0.4 0.1 0.0 0.3 0.3 0.4 0.0 0.1 0.1 0.0 0.0 0.1 0.2 0.2 0.2 0.0 0.0 0.0 0.0
2.4 0.8 0.7 1.9 2.0 3.2 4.8 1.3 1.5 2.3 3.9 5.6 3.5 7.4 1.9 1.2 0.9 0.6 0.5 0.5 0.5 0.5 0.5 0.4 0.5 0.5 0.3 0.1 0.0 0.0 0.0 0.3 0.1 0.1 0.1 0.1 0.3 0.3 0.4 0.2 0.3 0.0 0.0 0.0
4.4 1.2 1.4 3.2 1.5 1.9 2.8 1.0 1.7 2.3 4.6 7.2 3.9 6.9 3.9 1.7 1.7 0.9 0.9 0.7 0.5 0.4 0.4 0.4 0.3 0.3 0.1 0.1 0.1 0.2 0.0 0.0 0.0 0.1 0.1 0.2 0.2 0.3 0.3 0.1 0.2 0.0 0.0 0.0
1.7 0.8 1.2 1.4 0.6 1.0 1.2 1.2 2.1 3.7 8.0 13.5 4.6 6.2 5.5 3.8 3.0 1.0 0.8 0.8 0.6 0.4 0.4 0.3 0.2 0.2 0.1 0.1 0.1 0.1 0.1 0.1 0.1 0.1 0.1 0.2 0.3 0.2 0.3 0.3 0.3 0.2 0.0 0.0
7.7 2.5 1.3 0.8 3.0 2.0 3.9 12.9 21.9 21.5 19.8 9.7 2.4 4.3 5.8 2.9 1.3 1.2 0.9 0.8 0.7 0.5 0.5 0.4 0.3 0.3 0.1 0.1 0.1 0.1 0.1 0.1 0.1 0.1 0.3 0.4 0.4 0.2 0.2 0.4 0.6 0.3 0.3 0.4
11.3 9.0 2.6 1.4 2.4 3.9 4.6 9.6 16.5 14.3 9.4 4.6 3.0 4.8 5.6 2.1 1.1 1.0 1.0 0.9 0.7 0.6 0.6 0.5 0.2 0.2 0.2 0.1 0.1 0.1 0.1 0.1 0.1 0.1 0.1 0.2 0.4 0.4 0.4 0.2 0.3 0.5 0.5 0.2
9.4 7.3 1.1 1.0 1.0 2.3 5.9 8.3 6.9 11.9 8.5 5.9 4.5 4.5 3.6 1.4 1.1 1.1 1.0 0.9 0.8 0.7 0.6 0.5 0.4 0.3 0.2 0.2 0.1 0.1 0.1 0.0 0.0 0.1 0.0 0.0 0.2 0.3 0.4 0.4 0.3 0.3 0.4 0.4
6.5 9.1 2.5 0.9 1.0 1.3 2.3 4.6 10.0 17.9 14.6 8.5 4.7 4.1 5.2 3.9 2.7 1.9 1.3 1.1 1.1 0.8 0.7 0.5 0.4 0.4 0.3 0.2 0.2 0.1 0.1 0.1 0.1 0.1 0.1 0.2 0.1 0.1 0.2 0.3 0.4 0.3 0.4 0.4
3.5 11.0 7.0 3.7 5.6 6.0 5.4 8.5 12.1 14.3 12.3 11.0 7.4 6.0 4.7 3.8 2.8 2.3 1.7 1.5 1.4 1.1 0.9 0.7 0.6 0.6 0.5 0.3 0.3 0.3 0.2 0.1 0.1 0.1 0.1 0.2 0.2 0.1 0.1 0.1 0.2 0.2 0.3 0.3
3.6 10.2 10.0 4.7 1.8 1.7 3.9 6.9 10.3 16.9 13.1 10.0 8.4 6.7 3.3 3.0 2.2 1.8 1.7 1.6 1.5 1.3 1.2 0.9 0.7 0.6 0.7 0.6 0.5 0.4 0.3 0.3 0.2 0.1 0.1 0.2 0.2 0.1 0.0 0.0 0.1 0.1 0.2 0.2
6.7 14.0 14.5 7.5 4.3 2.3 6.8 5.7 6.3 10.6 16.3 13.3 10.7 7.0 3.1 2.1 1.7 1.7 1.7 1.7 1.6 1.3 1.3 1.1 1.0 0.7 0.7 0.8 0.7 0.5 0.4 0.4 0.3 0.2 0.1 0.1 0.1 0.0 0.0 0.0 0.0 0.1 0.0 0.1
5.3 13.2 12.0 9.9 8.8 8.8 8.6 6.1 6.4 13.9 20.9 12.3 6.8 4.9 3.1 2.3 2.4 2.0 1.7 1.7 1.7 1.6 1.6 1.4 1.3 1.0 1.0 0.8 1.0 0.9 0.6 0.6 0.5 0.4 0.2 0.1 0.1 0.1 0.1 0.0 0.0 0.0 0.1 0.0
3.7 12.3 8.5 4.6 2.8 4.2 5.8 5.8 5.4 10.0 11.2 11.8 6.4 4.0 3.3 3.0 2.9 2.5 2.0 1.7 1.6 1.6 1.5 1.3 1.2 1.1 1.2 0.9 0.9 1.0 0.9 0.6 0.5 0.5 0.4 0.2 0.1 0.2 0.2 0.0 0.0 0.0 0.1 0.0
3.3 8.4 7.2 6.0 2.0 2.4 4.4 3.2 3.1 4.5 4.9 6.4 4.9 4.4 3.1 2.7 2.2 2.1 2.2 2.0 1.8 1.8 1.7 1.4 1.1 1.0 1.0 1.1 1.1 1.1 1.0 0.8 0.6 0.5 0.5 0.4 0.3 0.2 0.3 0.1 0.0 0.0 0.0 0.0
4.6 5.9 12.2 8.0 3.3 4.4 7.6 3.6 3.7 4.3 4.4 4.9 6.1 4.3 3.2 2.6 2.5 2.4 2.3 2.2 2.1 1.9 1.8 1.4 1.2 1.1 1.0 1.0 1.1 1.2 1.2 1.0 0.7 0.7 0.5 0.5 0.4 0.3 0.4 0.4 0.1 0.1 0.1 0.1
3.7 5.9 12.7 9.8 6.7 9.2 4.8 2.9 2.8 3.2 3.9 3.8 3.6 3.3 3.0 2.8 2.6 2.5 2.4 2.2 2.0 2.0 1.9 1.4 1.2 1.0 0.9 0.9 0.9 1.1 1.2 1.1 0.9 0.8 0.8 0.7 0.5 0.4 0.5 0.5 0.8 0.6 0.3 0.5
2.0 4.7 12.0 11.8 8.9 5.9 2.4 2.1 3.2 3.6 4.2 3.7 3.3 2.5 2.4 2.2 1.8 1.9 1.8 1.9 2.1 2.0 2.0 1.7 1.4 1.2 0.9 0.8 0.8 0.9 1.3 1.1 1.0 0.9 0.8 0.8 0.7 0.9 1.0 0.9 0.9 1.0 1.2 1.4
2.0 3.9 10.5 12.2 10.6 6.0 3.8 2.0 2.1 2.9 4.6 3.2 2.5 2.5 2.4 2.1 2.8 2.4 1.9 1.6 1.7 1.7 1.5 1.6 1.5 1.3 0.9 0.7 0.7 0.9 1.6 1.9 1.4 1.2 1.3 1.1 1.1 1.5 1.8 1.8 1.9 1.4 1.5 1.6
4.1 7.7 11.3 10.2 9.8 5.0 3.5 2.0 1.7 5.0 7.9 3.1 2.8 2.9 2.8 3.5 3.5 2.6 1.9 1.7 1.7 1.7 1.6 1.3 1.4 1.4 1.3 1.0 1.0 1.1 1.4 1.8 2.1 1.7 1.6 1.5 1.7 1.7 2.3 2.0 1.7 1.6 1.7 1.4
4.4 6.2 7.1 7.6 10.2 7.3 3.6 2.7 5.2 6.3 3.4 2.7 2.6 2.6 2.9 2.7 2.2 1.9 1.8 1.9 1.7 1.7 1.5 1.6 1.8 1.8 1.2 1.7 2.5 2.7 2.8 3.0 2.4 2.4 2.9 2.8 2.0 1.9 2.1 2.0 2.1 1.9 1.8 1.7
4.8 6.1 6.3 6.7 7.4 6.2 4.6 4.9 5.0 3.9 3.5 2.7 2.7 2.6 2.6 2.5 2.3 2.0 1.9 1.7 1.8 1.8 1.9 1.8 2.1 2.2 1.8 2.0 2.5 2.8 3.1 2.1 2.8 3.1 2.8 2.4 1.8 1.3 1.3 1.5 1.8 1.9 1.8 1.6
3.8 3.2 4.3 5.7 5.6 4.8 4.4 3.8 3.2 3.2 3.6 3.2 2.9 2.8 2.6 2.6 2.3 2.1 2.0 2.0 1.9 2.0 2.0 2.2 2.5 2.6 2.4 2.2 2.3 2.7 2.8 2.5 2.1 2.7 2.6 2.5 2.2 1.8 1.4 1.1 1.3 1.6 1.6 1.7
4.0 3.5 4.2 4.9 4.5 3.6 3.5 3.5 3.4 3.1 2.8 2.6 2.3 2.2 2.5 2.5 2.6 2.4 2.4 2.3 2.1 2.2 2.0 2.3 2.7 2.9 2.5 2.6 2.9 2.7 2.5 2.5 2.5 2.2 2.2 2.0 1.9 1.9 1.8 1.5 1.4 1.5 1.3 1.6
3.9 4.2 5.0 5.4 4.3 4.3 4.2 3.5 3.0 2.8 2.9 2.8 2.5 2.3 2.1 2.3 2.7 2.5 2.3 2.3 2.2 2.4 2.1 2.1 2.6 2.8 2.8 2.6 2.8 2.4 2.4 2.4 2.5 2.6 2.5 2.5 2.7 2.4 2.5 2.3 2.3 1.3 1.1 1.0